| time (UTC) | temp C | wind direction | speed KPH | gust KPH | rain 1hr cm | rain 24hr cm | rain mn cm | humidity % | barometer mb |
| 20260502212702 | 5 | 297 | 0.0 | 0.0 | 0.00 | 0.00 | 0.00 | 57 | 1018.1 |
| 20260502211701 | 5 | 334 | 1.6 | 1.6 | 0.00 | 0.00 | 0.00 | 58 | 1018.2 |
| 20260502210701 | 5 | 351 | 1.6 | 3.2 | 0.00 | 0.00 | 0.00 | 59 | 1018.3 |
| 20260502205702 | 5 | 358 | 6.4 | 9.7 | 0.00 | 0.00 | 0.00 | 60 | 1018.3 |
| 20260502204701 | 5 | 296 | 8.0 | 11.3 | 0.00 | 0.00 | 0.00 | 55 | 1018.2 |
| 20260502203656 | 5 | 305 | 8.0 | 14.5 | 0.00 | 0.00 | 0.00 | 54 | 1018.5 |
| 20260502202654 | 5 | 328 | 8.0 | 11.3 | 0.00 | 0.00 | 0.00 | 55 | 1018.4 |
| 20260502201649 | 5 | 307 | 8.0 | 12.9 | 0.00 | 0.00 | 0.00 | 57 | 1018.5 |
| 20260502200647 | 5 | 303 | 12.9 | 17.7 | 0.00 | 0.00 | 0.00 | 60 | 1018.4 |
| 20260502195643 | 5 | 299 | 4.8 | 9.7 | 0.00 | 0.00 | 0.00 | 61 | 1018.7 |
| 20260502194641 | 4 | 332 | 6.4 | 9.7 | 0.00 | 0.00 | 0.00 | 63 | 1018.7 |
| 20260502193640 | 4 | 336 | 0.0 | 3.2 | 0.00 | 0.00 | 0.00 | 66 | 1019.0 |
| 20260502192638 | 3 | 293 | 0.0 | 3.2 | 0.00 | 0.00 | 0.00 | 68 | 1018.9 |
| 20260502191633 | 3 | 335 | 1.6 | 4.8 | 0.00 | 0.00 | 0.00 | 67 | 1019.0 |
| 20260502190628 | 3 | 303 | 3.2 | 4.8 | 0.00 | 0.00 | 0.00 | 66 | 1019.0 |
| 20260502185626 | 3 | 275 | 11.3 | 14.5 | 0.00 | 0.00 | 0.00 | 68 | 1019.3 |
| 20260502184625 | 4 | 325 | 20.9 | 25.7 | 0.00 | 0.00 | 0.00 | 65 | 1019.0 |
| 20260502183623 | 4 | 304 | 8.0 | 11.3 | 0.00 | 0.00 | 0.00 | 61 | 1018.9 |
| 20260502182621 | 4 | 221 | 8.0 | 11.3 | 0.00 | 0.00 | 0.00 | 60 | 1018.8 |
| 20260502181620 | 4 | 297 | 11.3 | 14.5 | 0.00 | 0.00 | 0.00 | 61 | 1019.3 |
| 20260502180615 | 5 | 269 | 9.7 | 12.9 | 0.00 | 0.00 | 0.00 | 61 | 1019.1 |
| 20260502163602 | 4 | 343 | 16.1 | 20.9 | 0.00 | 0.00 | 0.00 | 63 | 1019.1 |
| 20260502162601 | 4 | 338 | 22.5 | 25.7 | 0.00 | 0.00 | 0.00 | 62 | 1018.9 |
| 20260502161601 | 4 | 329 | 20.9 | 24.1 | 0.00 | 0.00 | 0.00 | 65 | 1018.8 |
| 20260502160557 | 4 | 345 | 19.3 | 22.5 | 0.00 | 0.00 | 0.00 | 66 | 1018.9 |
| 20260502151524 | 3 | 325 | 22.5 | 27.4 | 0.00 | 0.00 | 0.00 | 66 | 1019.3 |
| 20260502150519 | 4 | 353 | 19.3 | 25.7 | 0.00 | 0.00 | 0.00 | 63 | 1018.7 |
| 20260502130457 | 2 | 327 | 16.1 | 20.9 | 0.00 | 0.00 | 0.00 | 71 | 1019.5 |
| 20260502123451 | 2 | 335 | 17.7 | 20.9 | 0.00 | 0.00 | 0.00 | 76 | 1019.6 |
| 20260502122450 | 2 | 281 | 16.1 | 24.1 | 0.00 | 0.00 | 0.00 | 76 | 1019.4 |
| 20260502121445 | 1 | 316 | 17.7 | 20.9 | 0.00 | 0.00 | 0.00 | 76 | 1019.6 |
| 20260502120444 | 1 | 323 | 12.9 | 14.5 | 0.00 | 0.00 | 0.00 | 76 | 1019.5 |
| 20260502115444 | 1 | 331 | 16.1 | 22.5 | 0.00 | 0.00 | 0.00 | 76 | 1019.6 |
| 20260502114443 | 1 | 301 | 14.5 | 16.1 | 0.00 | 0.00 | 0.00 | 77 | 1019.1 |
| 20260502113443 | 1 | 280 | 9.7 | 12.9 | 0.00 | 0.00 | 0.00 | 77 | 1019.5 |
| 20260502112439 | 1 | 276 | 3.2 | 4.8 | 0.00 | 0.00 | 0.00 | 76 | 1019.5 |
| 20260502111439 | 1 | 341 | 8.0 | 14.5 | 0.00 | 0.00 | 0.00 | 76 | 1019.1 |
| 20260502110434 | 1 | 285 | 3.2 | 4.8 | 0.00 | 0.00 | 0.00 | 78 | 1018.9 |
| 20260502105434 | 1 | 259 | 1.6 | 3.2 | 0.00 | 0.00 | 0.00 | 80 | 1018.9 |
| 20260502104429 | 0 | 261 | 0.0 | 1.6 | 0.00 | 0.00 | 0.00 | 82 | 1019.1 |
| 20260502103424 | -17 | 0.0 | 0.0 | 0.00 | 0.00 | 0.00 | 1018.7 | ||
| 20260502102423 | -17 | 0.0 | 0.0 | 0.00 | 0.00 | 0.00 | 1019.1 | ||
| 20260502101419 | 0 | 202 | 0.0 | 1.6 | 0.00 | 0.00 | 0.00 | 84 | 1018.7 |
| 20260502100416 | 0 | 202 | 1.6 | 3.2 | 0.00 | 0.00 | 0.00 | 84 | 1018.8 |
| 20260502091401 | 0 | 202 | 0.0 | 0.0 | 0.00 | 0.00 | 0.00 | 83 | 1018.2 |
| 20260502090401 | 0 | 202 | 0.0 | 0.0 | 0.00 | 0.00 | 0.00 | 83 | 1018.4 |
| 20260502071336 | 0 | 202 | 0.0 | 0.0 | 0.00 | 0.00 | 0.00 | 81 | 1018.6 |
| 20260502070332 | 0 | 202 | 0.0 | 0.0 | 0.00 | 0.00 | 0.00 | 80 | 1018.3 |
| 20260502065329 | 0 | 202 | 0.0 | 0.0 | 0.00 | 0.00 | 0.00 | 79 | 1018.4 |
| 20260502064324 | 0 | 202 | 0.0 | 0.0 | 0.00 | 0.00 | 0.00 | 78 | 1018.4 |
| 20260502063319 | 1 | 202 | 0.0 | 0.0 | 0.00 | 0.00 | 0.00 | 78 | 1018.4 |
| 20260502062319 | 1 | 201 | 4.8 | 11.3 | 0.00 | 0.00 | 0.00 | 78 | 1018.4 |
| 20260502061315 | 0 | 201 | 0.0 | 0.0 | 0.00 | 0.00 | 0.00 | 78 | 1018.6 |
| 20260502060312 | 0 | 201 | 0.0 | 0.0 | 0.00 | 0.00 | 0.00 | 77 | 1018.7 |
| 20260502055308 | 0 | 201 | 0.0 | 0.0 | 0.00 | 0.00 | 0.00 | 77 | 1019.0 |
| 20260502054304 | 0 | 201 | 0.0 | 0.0 | 0.00 | 0.00 | 0.00 | 77 | 1018.7 |
| 20260502053304 | 1 | 201 | 0.0 | 0.0 | 0.00 | 0.00 | 0.00 | 76 | 1018.8 |
| 20260502052300 | 0 | 201 | 0.0 | 0.0 | 0.00 | 0.00 | 0.00 | 76 | 1018.9 |
| 20260502051256 | 0 | 202 | 1.6 | 3.2 | 0.00 | 0.00 | 0.00 | 76 | 1018.8 |
| 20260502050254 | 0 | 209 | 0.0 | 0.0 | 0.00 | 0.00 | 0.00 | 75 | 1018.7 |
| 20260502045254 | 0 | 224 | 1.6 | 4.8 | 0.00 | 0.00 | 0.00 | 73 | 1018.5 |
| 20260502044253 | 1 | 285 | 3.2 | 3.2 | 0.00 | 0.00 | 0.00 | 73 | 1018.6 |
| 20260502043248 | 0 | 269 | 0.0 | 0.0 | 0.00 | 0.00 | 0.00 | 73 | 1018.7 |
| 20260502042245 | 0 | 257 | 0.0 | 0.0 | 0.00 | 0.00 | 0.00 | 73 | 1018.8 |
| 20260502041240 | 0 | 261 | 4.8 | 4.8 | 0.00 | 0.00 | 0.00 | 72 | 1018.6 |
| 20260502040239 | 1 | 255 | 4.8 | 4.8 | 0.00 | 0.00 | 0.00 | 71 | 1018.2 |
| 20260502035238 | 1 | 221 | 4.8 | 4.8 | 0.00 | 0.00 | 0.00 | 70 | 1018.4 |
| 20260502034233 | 1 | 277 | 4.8 | 4.8 | 0.00 | 0.00 | 0.00 | 70 | 1018.4 |
| 20260502033229 | 1 | 210 | 3.2 | 3.2 | 0.00 | 0.00 | 0.00 | 68 | 1018.4 |
| 20260502032227 | 1 | 267 | 3.2 | 3.2 | 0.00 | 0.00 | 0.00 | 68 | 1018.2 |
| 20260502031223 | 1 | 213 | 0.0 | 0.0 | 0.00 | 0.00 | 0.00 | 69 | 1018.1 |
| 20260502030219 | 1 | 293 | 4.8 | 4.8 | 0.00 | 0.00 | 0.00 | 68 | 1018.2 |
| 20260502025219 | 1 | 229 | 0.0 | 0.0 | 0.00 | 0.00 | 0.00 | 67 | 1018.2 |
| 20260502024215 | 1 | 267 | 0.0 | 0.0 | 0.00 | 0.00 | 0.00 | 66 | 1018.0 |
| 20260502023215 | 2 | 290 | 0.0 | 0.0 | 0.00 | 0.00 | 0.00 | 65 | 1018.0 |
| 20260502022215 | 2 | 259 | 0.0 | 0.0 | 0.00 | 0.00 | 0.00 | 64 | 1018.0 |
| 20260502021210 | 2 | 323 | 4.8 | 8.0 | 0.00 | 0.00 | 0.00 | 63 | 1018.0 |
| 20260502020210 | 2 | 335 | 6.4 | 8.0 | 0.00 | 0.00 | 0.00 | 63 | 1017.8 |
| 20260502015209 | 2 | 337 | 8.0 | 9.7 | 0.00 | 0.00 | 0.00 | 63 | 1017.8 |
| 20260502014204 | 2 | 338 | 8.0 | 9.7 | 0.00 | 0.00 | 0.00 | 61 | 1017.6 |
| 20260502013201 | 2 | 330 | 1.6 | 3.2 | 0.00 | 0.00 | 0.00 | 61 | 1017.8 |
| 20260502012157 | 3 | 341 | 11.3 | 14.5 | 0.00 | 0.00 | 0.00 | 59 | 1017.7 |
| 20260502011155 | 3 | 330 | 1.6 | 3.2 | 0.00 | 0.00 | 0.00 | 58 | 1017.6 |
| 20260502010154 | 3 | 329 | 3.2 | 3.2 | 0.00 | 0.00 | 0.00 | 58 | 1017.5 |
| 20260502005150 | 3 | 323 | 6.4 | 11.3 | 0.00 | 0.00 | 0.00 | 59 | 1017.4 |
| 20260502004148 | 4 | 355 | 14.5 | 14.5 | 0.00 | 0.00 | 0.00 | 59 | 1017.3 |
| 20260502003143 | 4 | 323 | 6.4 | 14.5 | 0.00 | 0.00 | 0.00 | 59 | 1017.0 |
| 20260502002143 | 5 | 334 | 14.5 | 17.7 | 0.00 | 0.00 | 0.00 | 57 | 1017.1 |
| 20260502001143 | 5 | 11 | 8.0 | 9.7 | 0.00 | 0.00 | 0.00 | 55 | 1016.5 |
| 20260502000139 | 5 | 11 | 20.9 | 27.4 | 0.00 | 0.00 | 0.00 | 53 | 1016.6 |
| 20260501235136 | 5 | 303 | 16.1 | 17.7 | 0.00 | 0.00 | 0.00 | 51 | 1016.8 |
| 20260501234135 | 6 | 312 | 14.5 | 16.1 | 0.00 | 0.00 | 0.00 | 50 | 1016.5 |
| 20260501233130 | 6 | 326 | 16.1 | 22.5 | 0.00 | 0.00 | 0.00 | 49 | 1016.7 |
| 20260501232129 | 6 | 333 | 8.0 | 12.9 | 0.00 | 0.00 | 0.00 | 49 | 1016.5 |
| 20260501231125 | 6 | 322 | 14.5 | 22.5 | 0.00 | 0.00 | 0.00 | 48 | 1016.5 |
| 20260501230121 | 6 | 304 | 14.5 | 20.9 | 0.00 | 0.00 | 0.00 | 48 | 1016.3 |
| 20260501225120 | 6 | 336 | 19.3 | 24.1 | 0.00 | 0.00 | 0.00 | 49 | 1016.3 |
| 20260501224120 | 6 | 326 | 19.3 | 24.1 | 0.00 | 0.00 | 0.00 | 48 | 1015.9 |
| 20260501223119 | 6 | 349 | 20.9 | 24.1 | 0.00 | 0.00 | 0.00 | 49 | 1016.2 |
| 20260501222118 | 6 | 266 | 19.3 | 25.7 | 0.00 | 0.00 | 0.00 | 49 | 1016.2 |
| 20260501221118 | 6 | 276 | 19.3 | 25.7 | 0.00 | 0.00 | 0.00 | 49 | 1015.9 |
| 20260501220118 | 6 | 303 | 17.7 | 22.5 | 0.00 | 0.00 | 0.00 | 50 | 1015.6 |
| 20260501215116 | 7 | 327 | 14.5 | 22.5 | 0.00 | 0.00 | 0.00 | 48 | 1015.6 |
| 20260501214113 | 7 | 310 | 14.5 | 17.7 | 0.00 | 0.00 | 0.00 | 51 | 1015.7 |
| 20260501213112 | 7 | 276 | 20.9 | 27.4 | 0.00 | 0.00 | 0.00 | 50 | 1015.3 |